Wetbulb
67.32 66.74 65.55 66.16 65.36 64.83 63.76 63.57 62.75 61.58 61.50 60.11 59.63 59.07 60.75 61.47 61.17 60.39 61.49 61.60 63.00 63.10 62.53 62.94 63.65 64.11 63.17 62.25 62.80 62.00 60.15 59.34 56.65 58.73 61.36 62.10 63.09 62.64 62.92 64.36 64.35 62.41 62.24
68.35 66.47 65.76 65.25 64.85 63.86 63.13 62.92 63.07 61.88 61.56 60.83 60.86 61.18 60.79 59.97 61.05 61.67 61.78 61.60 61.14 60.42 62.49 62.74 62.33 62.57 63.63 63.01 62.16 61.68 60.13 60.36 59.15 56.03 59.10 59.16 59.80 63.67 62.56 61.60 61.82 62.19 61.86
66.76 65.86 65.03 64.43 63.25 62.99 62.43 62.58 62.23 61.53 61.63 60.89 61.08 60.61 60.82 61.00 61.30 61.47 60.60 62.08 62.23 61.53 62.05 62.87 63.09 63.46 63.22 63.52 63.71 61.59 59.49 58.47 58.98 57.39 56.03 58.51 60.35 61.29 60.05 60.08 59.67 60.07 61.41
65.11 64.52 64.16 63.79 63.23 62.83 62.59 62.49 62.42 62.57 61.78 62.55 62.25 62.56 62.08 62.12 62.07 61.62 62.11 62.46 62.73 62.93 63.62 64.44 64.09 63.54 62.84 63.40 61.33 61.25 58.15 57.34 56.35 56.32 56.13 56.89 58.14 59.61 59.03 57.95 57.04 58.69 58.51
66.13 64.89 64.82 64.55 64.73 64.53 63.55 63.17 62.22 62.20 61.73 62.65 61.83 62.50 62.18 62.17 60.83 61.75 62.13 62.63 62.87 63.97 63.71 64.54 63.94 64.81 64.50 62.37 60.11 59.28 59.16 56.77 54.85 53.98 55.12 55.81 56.33 56.81 56.81 57.74 56.39 57.05 57.87
65.25 65.29 66.24 65.92 66.19 65.44 64.47 63.44 63.49 63.51 64.21 64.57 64.19 63.76 63.26 62.17 61.61 62.02 62.52 61.58 62.27 62.07 61.54 62.73 64.57 65.24 64.42 64.20 62.47 61.86 60.15 56.98 55.00 53.83 54.43 54.61 55.45 57.25 58.04 57.42 56.59 55.17 53.25
66.00 65.99 66.29 66.35 65.41 65.12 65.00 64.55 64.39 64.42 64.97 64.62 64.74 64.67 64.08 64.40 62.05 60.81 62.23 61.96 61.84 61.45 62.05 62.46 63.19 62.09 62.65 63.18 62.98 62.14 61.10 61.13 60.24 56.18 54.72 56.00 57.02 58.03 57.32 56.17 57.03 56.22 55.18
66.56 66.00 66.07 65.58 65.19 65.72 64.65 63.44 65.04 64.53 64.65 64.50 64.44 65.77 65.60 65.19 61.83 60.63 61.91 63.31 63.40 63.68 63.75 63.57 63.16 63.31 63.51 63.76 63.24 61.68 59.89 58.20 59.11 59.33 58.55 59.42 59.33 56.68 56.27 57.62 57.92 57.55 57.82
64.88 65.70 65.71 65.81 65.74 64.91 64.18 63.08 62.66 62.74 65.01 64.99 64.89 62.89 63.42 64.63 61.65 60.06 61.21 63.72 63.03 63.02 63.48 64.08 63.88 63.00 63.39 62.37 61.44 60.69 59.83 57.76 59.20 59.03 58.92 58.08 57.51 57.47 57.55 56.31 54.86 55.37 55.13
65.65 66.53 67.37 67.55 66.98 66.34 67.08 67.38 66.27 66.06 64.23 63.06 63.76 65.32 64.28 65.35 61.41 58.47 59.38 63.04 61.99 61.77 62.60 62.89 62.31 62.52 61.88 59.28 59.86 60.43 58.20 57.06 58.56 59.43 58.72 57.10 58.18 59.62 59.63 58.80 57.28 55.97 55.33
66.68 66.81 67.18 67.49 67.18 66.95 67.67 68.28 67.80 65.30 66.04 65.32 65.57 65.05 65.17 64.68 64.30 58.62 56.91 61.96 62.39 61.57 60.87 60.63 61.68 57.50 56.14 56.14 56.13 61.34 59.10 58.87 59.87 57.72 56.66 55.73 57.18 59.76 61.28 60.74 60.41 59.23 55.73
66.96 66.53 66.52 66.82 64.92 64.57 65.38 66.79 66.12 66.27 64.70 63.75 63.31 63.18 63.69 64.50 60.76 59.62 56.92 55.65 61.25 62.08 60.98 61.33 62.01 56.24 54.43 54.83 55.77 56.01 55.91 54.94 55.55 54.31 54.37 54.56 55.82 58.03 59.74 60.92 60.81 60.64 60.18
66.93 66.40 66.48 66.75 66.31 62.74 66.04 64.40 62.98 64.01 62.24 61.11 60.79 60.87 61.36 63.53 66.18 57.54 57.08 56.16 56.14 58.22 62.43 61.29 58.36 56.25 53.02 53.78 53.57 54.33 55.11 55.24 54.00 53.88 53.85 54.67 56.62 59.30 61.61 61.25 60.76 62.57 62.76
66.03 66.08 65.91 65.46 64.79 65.43 64.15 63.79 63.18 61.63 61.31 60.71 60.55 59.58 61.54 63.75 64.48 63.48 63.15 61.78 57.10 58.06 59.15 60.10 59.69 58.33 57.36 58.18 58.36 57.42 56.25 56.35 56.04 55.48 55.47 56.40 58.09 58.77 57.55 59.09 57.85 58.22 57.70
65.45 64.88 64.33 63.24 63.68 63.04 64.52 62.51 61.90 64.04 61.30 61.23 60.91 60.27 59.09 58.70 59.61 56.01 55.68 59.13 59.89 58.27 57.84 59.36 58.93 58.88 58.71 59.09 59.84 60.70 60.81 59.63 57.17 57.48 56.61 56.55 56.85 57.41 56.87 58.59 57.78 57.42 56.20
64.78 62.81 61.34 60.95 61.52 61.97 62.89 63.50 57.48 54.93 52.61 49.34 48.84 54.05 59.53 53.48 50.26 48.61 47.70 47.12 47.10 48.11 54.81 57.10 57.71 58.08 58.08 58.43 58.81 59.36 60.22 60.48 61.39 60.03 58.33 56.82 56.16 56.43 56.99 57.04 56.69 56.50 55.11
65.24 63.56 61.21 59.90 61.14 62.12 62.36 61.90 60.64 59.70 51.06 49.86 47.81 47.04 45.90 51.00 48.43 46.71 46.03 45.17 45.71 47.13 55.11 56.42 57.46 58.42 58.61 58.77 59.05 59.04 56.26 56.40 57.04 56.42 56.20 54.88 55.08 56.48 56.66 56.13 55.98 55.72 54.61
65.58 57.13 61.41 61.33 61.21 61.52 61.55 61.63 61.83 61.23 60.68 61.31 53.00 49.28 48.64 45.13 44.74 44.16 43.17 49.43 55.14 53.22 57.31 56.36 57.27 58.52 58.73 58.26 57.86 58.03 58.89 58.82 56.30 56.58 55.80 55.88 54.88 55.00 54.20 54.30 54.70 53.72 53.63
63.95 62.63 62.77 62.62 62.50 61.46 62.94 61.90 61.03 60.52 60.56 60.92 62.09 58.35 50.26 44.66 43.01 44.26 45.52 54.67 56.12 56.38 56.26 56.82 57.04 55.94 56.86 57.66 57.92 58.55 58.65 58.26 58.15 56.66 55.52 55.26 54.68 53.99 53.22 53.47 53.29 50.98 51.23
62.75 59.94 59.55 62.35 62.00 61.50 61.33 61.15 61.44 61.46 61.74 61.75 61.97 61.76 61.05 57.84 58.55 58.30 55.38 59.28 59.66 58.63 59.95 58.97 57.99 57.83 56.76 56.68 56.82 57.14 57.19 56.40 57.21 55.78 55.60 55.15 55.03 55.03 53.65 53.54 53.28 52.12 51.40
63.06 63.06 61.22 62.28 62.01 61.87 61.60 59.76 61.52 61.70 60.16 60.48 61.52 60.47 52.34 59.68 60.06 62.20 61.08 61.41 60.04 60.28 60.48 59.98 59.13 59.49 59.19 58.74 57.07 56.44 56.13 55.62 55.43 55.34 55.09 54.38 54.03 52.35 52.82 53.11 52.80 53.09 53.01
62.83 62.16 61.74 61.47 61.76 62.25 62.50 62.81 62.77 62.52 61.76 61.46 61.40 61.40 49.45 58.82 59.40 59.96 60.54 61.05 60.35 60.63 60.93 60.13 59.52 58.95 57.67 57.56 57.43 56.56 55.36 54.22 53.87 52.34 50.82 50.77 51.44 51.03 51.01 50.86 50.34 49.78 49.36
61.37 61.80 61.93 62.14 62.35 59.55 59.37 59.56 61.32 61.56 59.86 59.67 60.56 62.66 61.58 59.68 59.36 59.89 60.34 60.44 60.10 59.95 60.02 59.53 58.75 57.72 58.85 58.92 57.55 56.67 53.12 49.77 48.55 48.64 47.98 47.23 47.35 47.95 49.17 49.41 49.57 49.03 49.10
62.37 62.76 62.49 61.95 62.12 62.68 62.76 63.14 61.49 56.27 59.67 59.25 61.04 60.74 59.73 59.76 59.16 59.40 59.45 59.33 60.60 59.32 59.02 58.66 57.85 56.90 57.75 56.51 56.44 48.04 47.25 46.34 47.89 47.12 45.88 46.37 45.96 45.46 46.79 47.15 49.15 50.31 50.09
63.22 62.19 61.45 61.47 62.71 63.37 61.69 59.88 61.85 60.97 61.03 59.88 59.31 58.76 58.38 58.32 57.35 57.02 56.73 56.34 55.65 56.84 56.22 56.79 57.76 56.58 55.93 55.48 54.51 47.73 37.01 32.36 42.43 36.53 44.25 43.84 44.68 45.42 46.03 47.57 48.52 48.17 48.90
62.22 63.01 59.12 59.20 58.85 60.09 61.19 61.63 60.39 60.35 59.64 58.93 58.51 58.08 57.34 55.85 55.13 54.86 55.17 55.30 54.28 54.51 53.55 53.17 52.39 53.26 53.54 53.02 49.56 38.36 32.52 30.32 37.69 31.83 37.82 43.31 44.56 45.35 46.86 47.47 47.76 47.10 47.27
MSLP
1016.77 1017.20 1017.84 1018.22 1018.30 1018.50 1018.63 1019.18 1019.55 1020.34 1020.43 1020.82 1021.10 1020.69 1021.24 1021.25 1021.47 1021.53 1021.06 1021.35 1020.81 1020.97 1021.14 1020.59 1020.40 1020.50 1020.69 1020.67 1020.46 1020.23 1020.07 1019.72 1019.36 1018.59 1018.52 1017.99 1017.65 1017.12 1016.82 1016.45 1016.16 1016.04 1015.76
1016.45 1017.14 1017.74 1018.26 1018.41 1018.60 1018.88 1019.48 1020.01 1020.51 1020.70 1020.54 1020.71 1020.96 1021.04 1021.14 1021.33 1021.38 1021.14 1020.90 1020.88 1020.64 1020.57 1020.65 1020.60 1020.47 1020.32 1020.36 1020.26 1020.16 1020.22 1019.94 1019.58 1018.98 1018.54 1018.26 1017.77 1017.13 1016.78 1016.66 1016.25 1015.90 1015.86
1016.71 1017.43 1017.74 1018.16 1018.56 1018.93 1019.42 1019.72 1019.96 1020.16 1020.16 1020.25 1020.46 1020.80 1020.69 1021.14 1021.21 1021.39 1021.14 1020.84 1020.79 1021.01 1020.64 1020.48 1020.38 1020.09 1019.86 1019.85 1019.71 1019.89 1019.97 1019.94 1019.69 1019.44 1018.54 1018.13 1017.51 1017.16 1017.04 1016.78 1016.46 1015.87 1015.73
1016.90 1017.26 1017.74 1018.17 1018.52 1018.99 1019.30 1019.44 1019.91 1020.10 1020.11 1019.99 1020.19 1020.35 1020.55 1020.81 1020.87 1020.99 1020.97 1020.70 1020.80 1020.60 1020.30 1020.18 1020.12 1019.88 1019.73 1019.70 1019.72 1019.63 1019.78 1019.79 1019.76 1019.44 1018.88 1018.15 1017.88 1017.35 1017.33 1016.98 1016.56 1016.03 1015.46
1016.67 1017.06 1017.54 1017.94 1018.27 1018.64 1019.06 1019.45 1019.72 1019.87 1019.77 1019.77 1019.88 1020.18 1020.38 1020.40 1020.35 1020.43 1020.49 1020.56 1020.44 1020.20 1019.97 1019.79 1019.62 1019.50 1019.46 1019.34 1019.46 1019.41 1019.57 1019.78 1019.62 1019.41 1019.13 1018.50 1017.85 1017.52 1017.53 1017.07 1016.62 1016.13 1015.51
1016.78 1017.02 1017.34 1017.75 1018.02 1018.17 1018.70 1019.20 1019.38 1019.51 1019.43 1019.75 1019.74 1019.66 1019.68 1019.86 1019.79 1019.84 1020.01 1020.07 1019.97 1019.80 1019.63 1019.40 1019.18 1019.04 1018.68 1018.64 1018.73 1018.82 1019.10 1019.13 1019.26 1019.15 1018.71 1018.36 1017.61 1017.47 1017.29 1017.16 1016.41 1016.05 1015.41
1016.57 1016.96 1017.18 1017.52 1017.99 1018.22 1018.40 1018.72 1018.87 1019.18 1019.25 1019.30 1019.23 1019.23 1019.07 1019.12 1019.16 1019.26 1019.39 1019.54 1019.52 1019.33 1019.19 1018.94 1018.79 1018.41 1018.08 1018.05 1018.07 1018.09 1018.03 1018.05 1018.17 1018.23 1018.09 1017.66 1017.24 1017.15 1016.69 1016.37 1016.06 1015.80 1015.86
1016.33 1016.65 1017.06 1017.51 1017.73 1017.87 1018.11 1018.33 1018.32 1018.46 1018.61 1018.65 1018.58 1018.52 1018.50 1018.46 1018.53 1018.58 1018.74 1018.92 1018.87 1018.73 1018.51 1018.31 1018.22 1017.95 1017.74 1017.55 1017.38 1017.37 1017.17 1017.11 1017.16 1017.17 1016.90 1016.65 1016.38 1015.98 1015.82 1015.55 1015.45 1015.12 1014.85
1016.33 1016.54 1016.90 1017.15 1017.29 1017.61 1017.71 1017.84 1018.00 1018.11 1018.27 1018.24 1018.27 1018.19 1018.17 1018.10 1018.14 1018.08 1018.14 1018.33 1018.22 1017.99 1017.73 1017.49 1017.28 1017.05 1016.67 1016.40 1016.50 1016.60 1016.58 1016.31 1016.01 1016.00 1015.84 1015.82 1015.40 1014.92 1014.72 1015.00 1014.90 1014.63 1013.91
1015.95 1016.26 1016.57 1016.87 1017.10 1017.30 1017.26 1017.50 1017.64 1017.88 1017.94 1017.88 1017.78 1017.60 1017.49 1017.39 1017.44 1017.44 1017.61 1017.84 1017.63 1017.31 1016.93 1016.50 1015.90 1015.59 1015.35 1015.29 1015.68 1015.94 1016.11 1015.70 1015.57 1015.32 1015.28 1015.15 1014.59 1013.98 1013.41 1013.46 1013.66 1013.77 1013.38
1015.84 1016.19 1016.54 1016.82 1017.10 1017.19 1017.20 1017.32 1017.50 1017.59 1017.53 1017.41 1017.20 1017.03 1016.91 1016.79 1016.69 1016.75 1016.86 1017.11 1016.76 1016.49 1016.20 1015.73 1015.17 1014.97 1014.96 1015.12 1015.02 1015.23 1015.01 1014.71 1014.85 1014.90 1014.76 1014.42 1013.70 1012.86 1012.34 1012.62 1012.83 1012.73 1012.13
1015.86 1016.12 1016.37 1016.66 1016.81 1016.53 1016.98 1017.11 1017.22 1017.11 1017.05 1016.78 1016.67 1016.43 1016.05 1015.73 1015.77 1015.87 1015.93 1016.02 1015.96 1016.03 1015.68 1015.20 1014.78 1014.50 1014.65 1014.69 1014.75 1014.52 1014.19 1014.29 1014.42 1014.29 1014.00 1013.42 1012.87 1012.19 1011.82 1011.77 1011.50 1011.29 1011.10
1015.83 1016.02 1016.18 1016.27 1016.33 1016.24 1016.49 1016.52 1016.50 1016.40 1016.29 1016.06 1015.87 1015.49 1015.11 1014.42 1014.54 1014.71 1014.85 1015.01 1015.14 1015.59 1015.22 1014.63 1014.31 1014.22 1014.08 1014.14 1013.93 1013.58 1013.39 1013.65 1013.58 1013.45 1012.86 1012.24 1011.71 1011.29 1011.00 1010.96 1010.74 1010.40 1010.18
1015.61 1015.71 1015.78 1015.86 1015.84 1015.81 1015.77 1015.61 1015.52 1015.57 1015.38 1015.22 1015.11 1015.03 1014.47 1014.12 1014.11 1014.12 1014.40 1014.67 1014.67 1014.82 1014.65 1014.61 1014.21 1013.92 1013.56 1013.29 1013.03 1012.72 1012.64 1012.33 1012.07 1011.83 1011.53 1011.23 1010.81 1010.35 1010.34 1010.14 1010.08 1009.92 1009.74
1015.12 1015.12 1015.11 1015.03 1014.84 1014.74 1014.73 1014.73 1014.66 1014.53 1014.54 1014.58 1014.56 1014.48 1014.37 1014.22 1013.99 1013.92 1014.01 1014.09 1013.96 1013.92 1013.93 1013.83 1013.49 1013.17 1012.75 1012.32 1011.85 1011.32 1011.05 1010.81 1010.90 1010.51 1010.43 1009.99 1009.66 1009.34 1009.21 1009.01 1008.86 1009.04 1009.14
1014.80 1014.77 1014.59 1014.32 1013.98 1013.82 1013.78 1013.70 1013.78 1013.73 1013.72 1013.66 1013.55 1013.60 1013.48 1013.39 1013.27 1013.10 1013.02 1012.95 1012.95 1013.49 1013.74 1013.13 1012.48 1012.00 1011.50 1011.03 1010.68 1010.36 1009.96 1009.53 1008.70 1008.56 1008.87 1009.03 1008.81 1008.24 1008.16 1008.01 1007.90 1008.12 1008.11
1014.65 1014.69 1014.52 1014.08 1013.74 1013.36 1013.15 1012.97 1012.83 1012.55 1012.50 1012.43 1012.42 1012.34 1012.46 1012.48 1012.36 1012.32 1012.37 1013.10 1014.37 1014.34 1014.23 1013.38 1012.30 1011.30 1010.56 1010.16 1010.02 1010.13 1010.48 1009.88 1009.64 1010.54 1009.94 1010.15 1009.33 1008.83 1008.36 1007.58 1007.09 1007.20 1007.20
1014.26 1014.38 1014.29 1013.93 1013.44 1012.97 1012.57 1012.27 1012.00 1011.75 1011.63 1011.48 1011.08 1011.51 1011.39 1011.37 1011.36 1011.44 1012.98 1012.84 1013.35 1013.89 1012.97 1012.25 1011.96 1011.59 1011.26 1010.70 1010.47 1010.26 1009.53 1009.79 1009.35 1009.52 1008.79 1008.92 1008.53 1007.98 1008.57 1009.32 1008.43 1008.63 1008.23
1013.54 1013.51 1013.23 1012.88 1012.53 1012.18 1011.90 1011.66 1011.38 1011.07 1010.80 1010.43 1010.20 1010.05 1010.04 1010.16 1011.31 1011.76 1011.64 1011.38 1010.98 1011.08 1011.09 1011.39 1010.66 1010.72 1010.60 1010.15 1010.54 1010.27 1009.96 1009.97 1009.32 1009.18 1009.08 1009.08 1008.51 1008.07 1007.88 1008.04 1008.42 1008.25 1007.47
1012.27 1012.28 1012.24 1011.92 1011.60 1011.34 1011.05 1010.67 1010.25 1009.86 1009.48 1009.24 1009.29 1009.49 1010.08 1010.49 1011.00 1011.90 1012.01 1011.16 1010.68 1010.47 1010.44 1010.33 1010.06 1009.79 1009.58 1009.44 1009.88 1009.79 1009.40 1009.15 1008.50 1008.14 1008.33 1008.64 1008.41 1008.09 1007.92 1007.89 1007.84 1007.70 1007.20
1011.18 1010.96 1010.71 1010.61 1010.46 1010.20 1009.81 1009.44 1008.95 1008.63 1008.48 1008.41 1008.60 1008.94 1008.72 1010.09 1010.61 1010.21 1010.12 1010.04 1010.54 1010.26 1009.88 1009.68 1009.39 1009.16 1009.04 1009.10 1009.48 1009.13 1008.61 1008.23 1007.88 1008.10 1008.22 1008.30 1008.02 1007.82 1007.60 1007.34 1007.07 1006.72 1006.51
1010.27 1010.08 1009.73 1009.31 1008.91 1008.70 1008.44 1008.16 1007.84 1007.66 1007.87 1008.06 1008.90 1009.71 1009.57 1009.08 1009.13 1009.18 1009.39 1008.92 1009.60 1009.51 1009.22 1008.88 1008.68 1008.75 1008.74 1008.79 1008.66 1008.37 1008.00 1008.13 1008.24 1008.19 1008.14 1007.94 1007.67 1007.58 1007.40 1007.22 1006.97 1006.63 1006.34
1009.92 1009.56 1009.12 1008.71 1008.27 1007.93 1007.82 1008.07 1007.93 1008.20 1008.90 1008.96 1009.69 1009.52 1008.81 1008.72 1009.01 1008.57 1008.57 1008.91 1009.07 1008.94 1008.85 1008.76 1008.67 1008.49 1008.36 1008.31 1008.03 1008.02 1008.15 1008.49 1008.78 1008.61 1008.51 1008.39 1007.97 1007.49 1007.01 1006.66 1006.44 1006.20 1005.94
1009.33 1008.99 1008.58 1008.08 1007.74 1007.70 1007.70 1008.07 1008.46 1008.30 1008.55 1008.87 1008.94 1008.33 1008.26 1008.37 1008.37 1008.08 1007.84 1008.37 1008.55 1008.63 1008.44 1008.56 1008.44 1008.29 1008.17 1008.05 1007.75 1008.30 1008.67 1008.96 1008.87 1008.86 1009.00 1008.59 1008.05 1007.52 1006.81 1006.19 1005.58 1005.50 1005.44
1007.97 1007.75 1007.39 1007.55 1007.36 1006.91 1007.80 1007.52 1008.34 1008.24 1008.20 1008.30 1008.02 1007.80 1007.80 1007.60 1007.30 1007.74 1008.18 1008.23 1008.18 1008.17 1008.15 1007.94 1007.73 1007.74 1007.39 1007.46 1007.40 1008.28 1008.89 1008.82 1008.75 1009.01 1008.74 1008.60 1007.98 1007.17 1006.26 1005.53 1005.05 1004.77 1004.75
1007.42 1007.39 1007.93 1007.71 1007.64 1008.05 1007.01 1007.00 1007.43 1007.38 1007.59 1007.55 1007.54 1007.42 1007.50 1007.77 1008.17 1008.35 1008.58 1008.50 1008.37 1008.20 1008.24 1007.94 1007.80 1007.57 1007.47 1007.42 1007.59 1008.65 1009.04 1009.15 1008.89 1008.93 1008.67 1008.17 1007.44 1006.59 1005.72 1005.17 1004.68 1004.34 1003.94
Wind_Speed
4 6 5 6 8 8 9 7 7 7 7 7 5 7 4 2 2 4 4 5 3 0 3 3 3 4 2 3 4 3 4 5 6 8 5 7 6 8 8 5 7 8 10
3 7 7 7 8 8 8 6 6 5 5 7 5 3 2 2 3 4 3 2 3 2 2 4 4 3 2 4 2 4 4 6 6 12 8 7 9 6 6 8 7 9 10
6 8 7 8 6 7 7 7 6 5 4 3 3 3 2 4 3 4 3 3 4 5 4 4 6 6 4 2 2 3 3 5 5 7 11 8 5 4 6 8 10 9 9
7 8 7 7 6 6 7 7 5 4 4 4 3 2 2 4 4 5 5 4 5 6 6 5 5 5 5 4 3 3 4 5 6 6 8 10 7 7 7 8 10 9 11
6 7 7 7 7 7 6 5 5 5 4 2 3 4 5 5 6 7 5 6 7 7 5 6 6 7 7 9 3 4 2 3 4 6 7 8 8 7 9 7 8 10 10
7 7 7 7 6 6 6 5 4 4 4 4 5 5 6 6 9 7 6 5 6 6 7 6 6 11 14 13 12 11 7 5 7 6 7 8 11 8 8 7 9 9 8
6 6 6 7 6 5 5 6 5 5 5 6 7 7 7 8 12 11 11 6 7 8 8 8 8 8 3 6 13 12 13 15 16 10 10 10 10 10 8 11 8 6 10
7 7 6 6 7 6 5 6 5 5 7 7 5 5 5 5 9 12 13 8 7 9 10 11 10 11 11 9 8 7 6 6 7 8 8 9 8 10 9 10 9 9 8
5 6 7 7 7 9 8 6 5 3 2 3 4 6 7 8 11 10 8 7 8 10 11 12 13 13 16 17 8 8 7 8 8 15 11 11 16 19 17 8 10 7 10
6 5 4 2 2 3 2 3 0 2 5 6 6 5 6 6 9 11 11 7 9 9 11 13 17 18 14 15 10 9 8 12 7 7 5 10 15 15 21 13 7 8 8
3 3 3 3 3 4 4 3 3 5 5 6 5 7 9 9 11 13 12 8 9 8 9 9 6 7 8 13 16 10 12 9 6 5 7 8 10 10 4 7 10 9 7
4 4 4 5 5 3 6 5 7 5 6 8 9 10 10 12 14 13 14 16 14 10 11 9 9 8 6 12 11 17 14 6 6 8 8 9 10 8 4 4 6 7 8
4 4 5 6 6 5 4 6 6 7 9 8 8 8 9 7 6 18 18 17 17 11 10 13 12 10 9 8 16 18 14 8 9 10 11 11 10 7 5 5 8 11 8
6 7 7 7 8 8 7 7 7 8 8 8 8 9 7 4 4 4 4 6 11 8 11 10 11 14 14 15 11 11 10 11 12 12 12 12 11 4 7 6 4 5 4
7 6 7 8 8 8 9 8 7 7 7 5 5 6 7 8 8 5 5 6 6 3 2 6 8 10 11 12 12 12 12 12 12 13 12 12 12 10 10 8 5 6 5
6 7 7 7 6 4 5 5 16 15 13 13 14 12 10 13 16 17 18 17 12 5 4 8 10 11 12 13 13 13 13 13 11 12 13 12 12 13 12 8 6 8 8
6 6 7 7 7 6 5 5 6 9 21 23 20 19 18 20 16 14 16 8 11 4 8 13 14 13 13 13 12 7 3 0 4 7 3 1 4 10 16 9 8 8 9
6 9 7 7 8 8 8 8 7 7 7 7 13 24 21 22 23 17 11 4 1 3 6 11 11 12 16 6 6 5 6 5 1 4 5 3 4 2 4 8 7 7 9
8 8 9 9 8 7 5 7 9 11 11 11 10 10 13 21 2 10 12 3 5 10 7 9 5 3 3 3 8 8 5 6 3 3 2 4 4 2 4 7 8 7 4
10 16 12 8 8 8 9 10 11 11 11 10 8 6 3 5 4 7 6 5 5 5 6 5 5 5 4 5 6 5 4 6 2 3 4 5 5 4 5 5 5 5 4
9 9 10 11 11 12 11 10 10 11 9 6 8 6 8 1 6 7 4 3 4 5 5 6 6 6 4 1 5 5 4 5 5 5 4 5 6 7 7 6 6 6 6
8 9 9 10 9 9 10 11 11 9 9 7 8 6 5 3 5 10 7 2 3 4 5 6 6 6 3 4 5 5 4 4 5 6 6 7 5 4 5 6 7 7 8
10 10 10 10 10 10 5 7 13 9 11 16 13 2 1 3 7 3 5 6 6 6 6 7 6 6 3 3 3 2 4 7 5 6 8 8 8 8 7 5 5 6 6
11 12 13 12 10 9 8 13 9 7 6 9 0 4 6 6 5 4 5 5 3 4 4 4 5 8 5 5 4 6 6 5 4 6 8 8 9 10 10 10 7 6 5
12 10 9 8 12 6 3 6 12 4 3 5 6 6 6 6 9 10 7 3 4 4 7 7 4 5 6 6 2 11 6 6 5 3 6 9 11 14 12 10 7 4 7
10 7 5 9 13 8 8 2 7 6 6 6 5 5 7 8 6 7 5 6 6 7 6 5 6 11 10 6 11 8 5 4 4 4 4 7 10 11 11 10 10 8 9
Wind_Direction
100 113 141 142 119 112 102 110 122 148 151 147 146 143 168 159 217 239 210 240 236 260 263 224 225 244 200 311 312 342 346 339 311 306 314 308 324 309 303 322 316 326 323
72 130 142 137 128 112 118 135 153 139 132 138 154 185 204 263 264 256 255 301 240 266 291 321 301 286 284 265 336 357 320 329 331 314 307 326 306 308 322 339 333 324 335
105 131 137 138 141 142 151 136 138 153 141 152 165 185 165 228 224 283 300 319 328 296 275 278 269 282 275 292 306 320 320 315 315 316 309 300 313 329 340 340 329 319 313
144 134 129 139 140 148 144 141 155 168 173 172 156 130 181 218 223 231 252 255 259 262 266 257 292 292 290 266 280 303 326 339 317 304 311 314 321 328 344 329 323 324 317
116 133 146 146 153 141 146 150 158 175 151 133 134 200 218 242 239 213 243 255 260 262 277 259 261 258 237 235 213 234 248 272 300 301 297 306 306 317 312 317 310 314 309
161 147 142 143 151 144 136 150 156 183 183 193 217 217 226 244 263 226 228 260 276 274 274 272 267 259 256 236 214 222 212 228 258 261 271 279 287 298 295 300 307 316 318
139 153 147 136 141 154 159 166 179 201 218 223 226 227 228 230 230 220 222 232 253 261 266 271 273 276 260 203 221 223 230 232 235 251 262 262 279 280 289 291 281 286 284
149 139 141 166 176 172 176 196 204 218 215 223 241 239 252 252 251 214 224 231 249 259 264 265 258 263 264 255 250 218 231 247 261 257 240 245 243 266 264 270 282 277 260
158 158 168 200 201 188 200 192 214 226 275 248 243 259 252 252 262 223 213 232 253 261 262 256 256 253 249 223 211 219 237 255 258 265 239 251 272 272 262 269 269 280 293
163 161 167 185 237 261 290 268 28 242 252 247 263 261 283 270 255 222 202 231 249 252 256 255 245 239 236 204 199 213 223 244 239 265 285 287 275 267 261 245 239 251 274
155 156 172 190 216 253 249 261 262 268 277 289 278 269 270 260 255 243 223 233 244 255 266 273 285 334 250 214 218 223 225 235 240 264 266 269 274 267 249 186 208 225 268
185 197 199 206 236 267 203 235 250 254 256 254 256 260 255 251 242 241 232 221 239 245 253 263 263 229 254 222 224 238 243 230 253 256 257 262 271 266 255 245 258 257 257
217 223 238 241 246 261 244 242 248 239 246 259 264 271 271 232 216 216 231 232 238 243 257 260 274 286 259 244 232 239 240 229 238 247 252 252 254 249 243 244 259 247 234
224 229 233 239 240 240 245 251 245 239 254 246 258 268 269 284 236 254 207 232 245 249 258 274 266 269 272 270 276 242 234 232 233 239 244 250 257 234 255 242 250 268 256
239 251 248 248 242 234 223 232 241 246 256 282 287 289 291 291 286 256 229 265 272 227 244 268 271 268 274 276 273 263 246 230 230 236 241 241 245 244 243 233 226 244 236
264 274 261 260 276 279 254 235 228 235 247 237 237 236 254 241 255 260 267 274 266 216 254 269 270 269 268 268 269 271 269 271 252 213 235 248 253 240 238 232 226 245 248
267 280 290 295 279 285 278 264 264 249 231 239 240 245 237 243 258 261 258 342 71 45 310 300 286 277 272 268 273 317 34 238 51 350 22 26 23 38 330 268 245 244 245
234 256 268 265 264 262 258 253 262 277 292 287 244 236 243 240 244 256 95 145 39 239 269 279 294 311 323 331 338 328 301 292 257 281 276 259 234 153 360 311 353 345 348
214 237 244 247 249 261 282 279 268 262 259 260 261 259 225 243 80 161 177 196 188 229 259 254 199 204 242 359 322 278 275 289 270 285 261 269 253 271 254 273 270 265 268
243 236 241 255 261 263 260 255 256 256 258 261 256 284 37 52 67 263 248 240 232 249 248 247 273 266 238 232 240 257 275 289 256 328 343 314 304 288 277 268 272 273 271
255 264 238 227 234 241 245 249 257 261 261 274 279 209 200 37 313 282 198 210 246 251 254 267 261 256 241 292 275 276 295 334 9 7 355 346 339 337 336 322 311 308 296
267 269 271 270 261 238 245 252 253 263 269 322 347 346 134 84 240 254 262 110 284 263 255 282 299 305 326 293 309 309 337 2 5 1 344 328 325 307 302 325 321 319 317
269 273 278 276 271 271 292 322 288 15 16 352 300 292 235 193 236 105 16 359 353 350 337 326 318 312 330 313 265 312 349 52 20 352 1 344 326 312 301 276 291 290 287
254 257 260 265 275 276 303 351 27 17 323 261 222 26 32 12 353 326 311 38 339 1 9 335 323 322 301 300 316 87 72 52 23 17 352 325 324 314 309 305 291 281 292
249 259 265 343 329 333 21 134 234 220 60 36 7 6 344 325 360 37 48 7 348 356 330 292 275 265 303 255 223 108 125 92 60 11 347 321 305 300 288 285 297 258 274
292 311 62 21 336 290 226 359 31 17 13 6 344 358 6 38 25 27 4 355 348 346 348 351 355 11 349 36 91 103 88 55 39 25 340 310 310 307 303 315 319 318 312